Probability
1 2 6 11 8 2 0 0 0 0 0 0 0 0 0 0 0 0 0 0 0 0 0 0 1 2 2 2 1 1 2 2 1 0 0 0 0 0 1 0 0 0 0 0 0 0 0 0 0
1 3 8 11 5 1 0 0 0 0 0 0 0 0 0 0 0 0 0 0 0 0 0 0 0 1 1 1 1 0 1 1 0 0 0 0 0 1 1 1 0 0 0 0 0 0 0 0 0
2 5 9 7 2 0 0 0 0 0 0 0 0 0 0 0 0 0 0 0 0 0 0 0 0 0 0 0 1 0 0 0 0 0 0 0 0 1 1 1 0 0 0 0 0 0 0 0 0
5 8 7 3 0 0 0 0 0 0 0 0 0 0 0 0 0 0 0 0 0 0 0 1 1 1 0 0 0 0 0 0 0 0 0 0 0 0 0 0 0 0 0 0 0 0 0 0 0
7 7 4 1 0 0 0 0 0 0 0 0 0 0 0 0 0 0 0 0 0 0 0 1 2 1 0 0 0 0 0 0 0 0 0 0 0 0 0 0 0 1 1 1 0 0 0 0 0
6 4 1 0 0 0 0 0 0 0 0 0 0 0 0 1 1 0 0 0 0 0 0 1 1 1 0 0 0 0 0 0 0 0 0 0 0 0 0 0 0 1 1 1 0 0 0 1 1
3 2 0 0 0 0 0 0 0 0 0 0 0 0 1 2 2 1 0 0 0 0 0 0 0 0 0 0 0 0 0 0 0 0 0 0 0 0 0 0 0 0 0 0 0 0 1 2 2
2 1 0 0 0 0 0 0 0 0 0 0 0 0 1 2 2 1 0 0 0 0 0 0 0 0 0 0 0 0 0 0 0 0 0 0 0 0 0 0 0 0 0 0 0 0 1 3 3
1 0 0 0 0 0 0 0 0 0 0 0 0 0 1 2 2 1 0 0 0 0 0 0 0 0 0 0 0 0 0 0 0 0 0 0 0 0 0 0 0 0 0 0 0 1 2 2 2
1 0 0 0 0 0 0 0 0 0 0 0 1 1 3 3 1 0 0 0 0 0 0 0 0 0 0 0 0 0 0 0 0 0 0 0 0 0 1 1 0 0 0 0 0 1 2 1 1
1 0 0 0 0 0 0 0 0 0 0 0 2 3 4 3 1 0 0 0 0 0 0 0 0 0 0 0 0 0 0 0 0 0 0 0 0 0 1 1 1 1 1 0 0 1 1 0 0
0 0 0 0 0 0 0 0 0 0 0 0 2 5 5 3 1 0 0 0 0 0 0 0 0 0 0 0 0 0 0 0 0 0 0 1 0 0 1 1 1 2 1 0 0 1 0 0 0
0 0 0 0 0 0 0 0 1 0 0 0 1 4 5 3 1 0 0 0 0 0 0 0 0 0 0 0 0 0 0 0 0 0 0 0 0 0 0 0 1 1 1 0 0 0 0 1 1
0 0 0 0 0 0 0 0 0 0 0 0 0 2 2 1 0 0 0 0 0 0 0 0 0 0 0 0 0 0 0 0 0 0 0 0 0 1 1 1 0 0 0 0 0 0 1 2 2
0 0 0 0 0 0 0 0 0 0 0 0 0 0 0 0 0 0 0 0 0 0 0 0 0 0 0 0 0 0 0 0 0 0 0 0 0 1 2 2 1 0 0 0 1 2 2 3 2
0 0 0 0 0 0 0 0 0 0 0 0 0 0 0 0 1 2 1 0 0 0 0 0 0 0 0 0 0 0 0 0 0 0 0 0 0 1 1 2 2 1 1 1 2 4 4 3 3
0 0 0 0 0 0 0 0 0 0 0 0 0 0 0 1 2 3 2 1 0 1 2 1 1 1 1 1 1 0 0 0 0 0 0 0 0 0 1 2 2 2 2 1 2 3 4 4 4
0 0 0 0 0 0 0 0 0 0 0 0 0 0 0 1 2 3 2 1 2 3 4 3 4 4 5 4 3 2 1 0 0 0 0 0 0 0 1 1 1 1 1 1 1 1 2 3 4
0 0 0 0 0 0 0 0 0 0 0 0 0 1 1 1 2 3 3 3 5 6 7 8 8 9 9 8 6 4 2 2 2 1 1 0 0 0 1 0 0 0 1 2 1 1 1 3 4
0 0 0 0 0 0 0 0 1 1 1 0 0 1 2 2 3 5 6 7 9 10 10 11 12 11 10 9 8 5 4 4 3 3 3 2 1 0 0 0 1 1 2 3 3 2 3 3 4
0 0 0 0 0 0 0 0 1 1 1 0 1 2 4 4 5 7 9 9 11 13 12 12 12 11 10 9 8 6 6 6 5 4 5 5 3 1 0 0 1 2 3 3 3 3 3 3 4
0 0 0 0 0 0 0 0 0 0 0 0 1 4 7 9 9 10 10 10 11 13 14 14 14 13 11 9 8 6 6 6 5 4 5 6 5 3 1 1 2 3 4 4 3 3 4 5 5
0 0 0 0 0 0 0 0 0 0 0 0 2 4 8 12 13 11 10 11 12 14 16 17 18 17 13 10 7 6 5 5 4 5 5 6 5 4 3 2 2 3 3 3 3 4 6 8 7
0 0 0 0 0 0 0 0 0 0 0 0 2 4 7 12 14 12 11 13 15 17 19 21 21 20 17 13 10 8 6 5 5 6 7 6 5 5 5 4 3 3 4 4 5 7 10 10 9
0 0 0 0 0 0 0 0 0 1 1 1 3 5 7 10 13 14 15 18 20 21 22 25 26 24 21 18 16 13 9 6 5 7 8 7 5 4 4 4 3 4 6 7 8 9 11 11 10
0 0 0 0 0 0 0 0 1 2 2 3 4 6 8 10 12 15 18 22 25 25 27 30 32 29 25 23 22 19 13 8 6 6 7 6 5 4 3 3 3 5 8 10 10 11 11 10 8
0 0 0 0 0 0 0 0 1 2 3 4 4 7 10 11 11 13 17 22 26 27 28 31 34 34 29 26 25 22 18 13 9 8 7 6 7 6 4 4 5 7 9 11 11 12 11 10 9
0 0 0 0 0 0 0 0 1 2 3 4 5 10 13 12 11 13 16 21 25 25 26 28 32 34 32 28 26 24 22 19 16 14 11 11 12 11 9 8 9 10 10 12 13 13 13 12 11
0 0 0 0 0 0 0 0 0 1 2 5 8 12 14 14 13 13 17 22 25 25 27 29 29 31 31 29 27 25 25 23 22 21 18 17 18 17 15 15 15 15 15 15 15 15 14 13 13
0 0 0 0 0 0 0 0 0 1 2 6 10 13 14 14 13 13 17 22 25 26 29 30 29 29 30 29 27 26 26 26 25 23 21 20 20 19 18 18 19 18 18 18 18 16 14 13 13
Wind_Speed
12 9 5 5 6 4 11 9 8 7 7 7 7 5 8 9 8 8 7 7 9 10 11 12 11 11 12 12 12 12 12 12 12 12 12 12 11 11 11 11 11 12 13 13 13 13 13 13 13
8 5 6 6 1 8 11 9 9 9 8 7 6 6 8 9 8 8 8 9 10 10 10 11 12 11 11 11 11 11 11 11 11 11 11 11 11 10 10 10 11 12 13 13 13 13 13 12 12
6 6 6 2 8 10 11 9 9 9 7 5 5 7 7 7 7 7 9 11 10 11 10 12 11 11 11 10 10 10 11 11 11 11 11 11 10 10 10 10 11 11 12 12 12 12 12 12 12
5 6 5 3 13 12 9 9 8 8 7 5 6 8 8 7 5 9 13 12 11 11 10 13 11 11 11 10 10 10 10 10 10 10 10 10 10 10 10 11 11 11 11 12 12 12 11 11 11
6 5 2 9 12 10 8 7 6 6 6 6 6 9 9 7 9 13 12 11 11 10 9 12 11 10 10 10 9 9 9 9 10 10 9 9 10 10 10 10 11 11 11 11 11 10 10 10 10
5 3 5 10 11 8 8 6 6 7 7 7 6 9 8 8 10 11 11 10 10 10 9 11 11 10 10 9 9 9 8 9 9 9 9 9 9 9 9 9 10 10 10 10 10 10 9 9 8
4 3 7 9 9 9 6 5 5 6 7 6 5 7 9 9 10 10 10 10 9 9 9 8 9 10 10 9 8 8 8 8 8 7 8 8 8 8 8 8 9 10 10 9 9 9 9 8 8
4 2 7 8 8 9 7 5 5 4 6 6 3 5 9 11 11 10 10 9 8 8 7 7 7 7 8 9 9 7 7 7 7 7 7 7 8 8 8 9 9 9 9 9 8 8 8 8 7
6 1 7 7 6 7 6 5 5 5 7 6 5 7 12 15 13 11 10 9 8 7 6 6 6 6 5 6 9 8 8 7 7 7 7 6 6 7 8 9 9 8 8 8 7 7 7 7 8
4 4 9 6 4 4 5 4 6 6 7 7 9 11 15 14 13 11 10 10 10 8 7 6 5 5 5 4 5 4 5 6 4 4 4 3 4 4 6 10 8 8 8 8 7 6 7 7 6
2 5 5 4 3 3 5 5 4 4 5 6 11 15 16 14 12 10 9 9 9 9 7 6 6 5 4 3 3 2 2 3 4 4 3 3 3 4 5 5 7 7 8 6 7 7 3 2 2
1 3 3 2 2 3 3 4 4 2 4 7 11 16 16 14 12 11 9 9 9 8 7 6 6 5 3 2 2 3 3 3 3 4 3 3 3 3 3 2 3 4 3 3 3 2 2 2 2
0 3 3 2 2 3 4 4 3 4 5 9 13 15 15 13 12 10 9 8 8 8 7 7 6 5 4 3 2 3 2 3 4 3 3 3 3 3 3 3 2 2 3 4 3 2 2 2 3
3 2 2 3 4 5 5 4 4 5 8 11 13 15 14 13 12 11 10 9 8 8 7 7 6 6 5 4 2 2 3 3 3 3 4 3 3 3 3 3 3 2 2 2 2 2 2 1 1
2 2 3 4 4 4 5 5 5 7 9 11 12 13 13 12 12 11 10 9 9 8 8 7 7 6 6 4 4 3 3 3 3 3 4 4 3 3 3 3 3 2 2 2 2 2 2 2 2
5 5 2 5 3 4 7 2 7 9 11 11 11 12 12 12 12 10 10 9 9 8 8 7 7 7 6 5 4 3 3 3 3 3 4 4 3 3 3 2 2 2 2 2 2 2 1 1 1
6 4 1 3 3 3 6 1 7 8 10 10 11 12 12 12 12 11 11 10 9 9 8 8 7 7 6 6 4 3 3 3 3 3 3 4 4 4 3 2 1 2 2 1 2 1 1 1 1
4 4 3 2 3 5 6 2 5 8 9 9 11 12 12 13 13 12 11 11 10 9 9 8 8 7 6 5 4 3 3 3 3 3 3 3 3 4 3 3 2 2 2 1 1 1 1 1 1
7 8 6 3 0 5 6 5 5 7 9 9 11 12 12 12 13 12 11 11 10 10 10 9 9 8 6 5 5 5 5 4 4 3 4 4 3 3 3 2 3 3 2 2 3 2 3 3 2
9 10 7 3 1 5 6 7 6 8 10 10 11 12 13 13 13 13 13 12 12 12 11 10 10 9 8 6 5 4 4 4 4 3 4 4 3 3 4 3 3 3 2 3 3 3 3 3 2
10 10 8 6 4 7 8 9 8 8 10 9 10 11 12 13 14 14 14 14 13 12 12 10 11 10 10 8 6 5 4 4 4 5 4 4 4 4 3 3 3 2 4 3 4 4 4 3 3
11 6 7 7 9 7 7 8 7 8 9 10 11 11 12 13 14 14 15 15 14 13 12 12 11 11 10 9 8 8 6 5 5 4 4 5 5 4 4 4 3 3 4 3 5 4 4 4 4
8 4 6 9 10 10 9 10 6 7 9 9 10 11 12 13 14 15 16 15 14 14 13 12 12 11 11 11 10 9 7 6 5 4 5 4 5 5 5 4 4 4 3 3 4 3 4 4 4
6 6 7 9 10 12 10 11 8 5 6 7 8 9 10 11 13 13 14 14 14 14 13 13 12 12 12 12 11 10 8 7 6 6 5 5 4 4 5 5 4 4 3 3 4 4 5 4 4
10 10 8 9 10 9 5 10 7 2 3 5 4 5 8 10 11 12 14 14 15 15 15 14 14 13 12 12 11 10 10 9 8 7 6 6 5 4 5 4 4 3 3 3 3 4 4 4 4
11 13 11 10 9 7 6 9 5 1 2 3 4 4 5 8 9 11 13 13 14 15 15 15 14 13 12 12 11 10 10 8 7 7 6 6 4 4 4 4 4 4 4 4 3 4 3 3 4
11 12 11 12 13 12 8 6 6 5 5 5 3 3 4 6 7 8 10 12 12 14 14 14 14 13 12 12 11 10 10 8 7 7 7 5 4 4 5 5 5 4 4 4 4 3 3 3 4
9 8 8 11 11 12 11 11 7 5 5 4 3 3 3 4 6 8 8 10 11 12 12 13 13 12 12 12 11 9 10 9 8 7 7 6 5 4 5 5 5 4 4 4 4 4 3 4 4
9 10 9 10 11 12 11 6 0 3 3 3 2 1 1 3 4 6 7 8 9 10 11 12 12 12 11 11 10 10 9 9 8 7 7 7 6 6 6 5 5 5 4 4 4 4 4 4 4
9 10 11 10 10 11 12 8 1 1 2 2 2 1 0 1 3 4 6 7 8 9 10 11 11 12 11 11 10 10 9 9 9 8 8 7 7 7 6 6 6 5 5 4 4 5 4 5 5
Wind_Direction
175 184 209 237 231 94 66 64 64 75 71 67 69 57 59 44 32 72 95 108 116 119 119 121 114 115 113 109 107 105 106 106 106 107 108 110 110 110 113 115 116 117 120 121 124 125 124 123 122
174 188 228 242 291 78 71 67 71 67 84 96 80 70 70 65 62 95 115 115 123 120 120 116 115 116 115 112 109 107 106 105 107 109 113 116 115 114 115 119 119 120 123 124 125 125 124 123 122
186 229 260 264 53 60 73 74 80 91 98 92 82 60 54 67 85 104 115 126 124 117 116 113 121 118 117 114 112 109 107 106 108 111 114 118 121 122 122 124 123 122 124 127 127 128 126 124 125
223 226 231 74 72 64 73 85 97 106 95 81 91 86 75 57 88 111 124 130 123 120 122 117 124 120 117 114 112 111 110 109 110 111 113 117 121 125 126 125 125 125 126 127 128 129 128 127 127
244 253 134 83 75 74 77 88 101 90 84 86 88 90 86 78 100 119 129 129 122 121 120 119 121 120 118 114 113 112 111 111 111 113 114 117 120 122 123 125 127 127 126 126 128 129 129 131 131
251 249 76 80 82 82 89 100 100 85 90 96 98 98 88 109 120 125 128 127 124 124 123 120 126 127 125 122 118 115 114 111 111 113 116 117 119 120 125 128 131 130 128 129 131 130 128 132 133
299 25 68 78 89 89 85 94 92 89 93 92 97 99 111 125 125 128 125 125 125 126 122 125 133 134 134 129 123 124 120 117 115 114 115 115 117 122 125 131 133 133 133 134 135 133 132 134 137
298 286 84 77 81 86 99 103 79 82 89 98 108 108 126 135 136 135 130 128 129 129 127 129 130 128 138 134 129 130 127 125 123 119 120 123 130 135 139 144 133 134 135 135 137 138 138 138 141
262 271 70 64 67 90 115 117 102 99 106 106 84 86 121 135 143 143 138 137 138 138 138 137 129 130 131 127 133 142 140 135 146 141 141 170 160 147 154 119 129 135 136 136 138 142 147 156 154
271 35 56 50 59 88 125 125 125 136 124 123 113 111 128 144 153 154 149 149 149 148 145 139 138 138 133 129 135 147 146 143 151 131 148 155 132 131 120 120 132 141 144 151 148 152 172 198 163
332 30 47 61 69 102 134 136 147 145 132 140 142 142 147 154 159 160 155 155 152 150 147 148 146 144 136 134 141 137 132 134 137 129 136 116 128 134 141 143 148 154 165 162 154 177 179 161 118
34 41 27 53 88 140 137 136 147 158 80 122 144 149 155 162 166 165 162 158 153 156 157 156 151 151 148 138 139 149 148 146 140 138 157 143 138 139 129 145 143 157 149 145 153 149 140 148 167
62 40 40 59 137 142 146 140 134 123 119 134 144 154 162 168 168 167 162 160 162 166 166 164 162 156 155 160 181 149 149 153 146 143 146 155 151 147 143 137 142 155 144 158 155 152 146 176 184
9 9 68 102 121 146 163 150 167 132 140 147 156 163 168 172 171 168 171 173 172 174 173 169 173 168 169 171 170 158 159 157 155 154 150 169 156 142 150 152 156 156 162 134 152 150 173 202 181
264 234 148 122 147 154 184 175 166 142 156 159 164 168 171 176 176 178 179 182 179 177 176 175 178 176 179 181 179 172 171 164 161 150 156 171 164 147 168 157 171 154 152 154 179 159 175 195 200
230 235 190 122 163 172 236 153 130 155 170 170 172 174 177 181 184 181 181 187 182 179 176 182 183 178 179 185 190 181 180 167 161 163 160 170 164 167 188 173 167 157 180 173 171 199 187 176 221
222 254 299 136 174 201 241 233 133 168 182 180 182 182 183 183 188 184 185 186 183 181 180 183 187 182 182 179 184 186 170 178 174 172 170 163 176 179 198 188 140 191 200 207 226 158 238 197 203
270 281 277 267 166 231 243 239 161 180 195 191 188 190 189 189 189 186 188 186 183 181 183 186 186 185 183 180 179 186 182 183 185 178 162 168 177 178 208 192 181 223 215 212 215 209 233 247 238
292 285 285 300 206 247 248 246 210 194 204 200 196 195 195 195 188 185 189 189 185 185 185 189 191 183 187 187 190 186 187 191 184 183 170 179 192 183 204 224 185 226 218 225 224 224 214 230 222
260 266 267 253 206 259 265 257 229 210 213 210 205 200 199 195 189 187 191 191 191 188 189 190 192 188 195 190 194 195 197 197 187 186 167 189 196 207 200 217 226 215 214 222 228 225 244 239 220
251 261 274 281 256 234 258 247 219 209 213 215 213 207 203 199 194 190 193 196 195 193 193 194 194 191 197 192 189 186 185 202 187 187 182 190 200 206 226 213 231 232 234 217 228 228 232 242 235
254 257 267 263 259 254 252 271 234 210 210 213 212 208 204 200 198 195 195 198 197 195 191 193 193 193 192 192 197 196 197 200 192 189 179 186 196 206 203 213 220 235 245 230 234 221 234 243 249
270 284 261 260 263 268 246 262 251 209 223 218 213 208 208 201 200 199 199 198 199 195 191 190 191 193 192 194 196 202 208 204 192 186 179 198 192 204 209 213 221 225 236 238 251 245 243 241 249
242 234 240 243 251 251 247 258 257 228 233 229 212 208 209 205 201 200 198 196 197 193 191 189 188 192 192 194 197 202 205 204 199 194 189 196 193 196 200 208 220 230 235 230 235 235 229 244 254
222 234 237 232 230 246 225 251 262 263 256 258 241 217 208 204 200 196 197 195 194 192 191 190 189 192 192 194 199 201 204 204 205 206 201 209 203 197 199 211 216 231 236 242 246 237 244 233 237
226 240 251 261 261 255 214 246 261 239 250 254 248 222 208 201 200 197 194 193 193 193 192 191 188 189 190 192 197 201 203 206 206 210 216 208 216 209 193 207 217 225 231 235 233 241 230 229 237
232 239 260 266 268 273 255 248 242 218 227 228 220 201 199 197 195 192 190 190 191 194 193 191 187 188 190 192 193 197 202 208 208 202 211 214 213 210 201 210 216 221 225 231 236 240 241 232 237
257 252 243 251 258 261 256 248 246 227 234 230 223 210 196 193 190 187 185 187 189 191 191 190 188 190 191 192 195 194 198 202 205 207 206 210 208 211 213 216 217 218 219 220 230 231 229 238 242
212 227 241 253 258 264 266 262 2 245 244 247 236 224 198 186 180 180 179 182 185 185 185 186 187 190 192 193 194 197 194 196 199 202 204 205 206 202 211 216 219 220 219 219 222 237 232 238 242
242 239 236 247 249 255 270 272 94 260 277 269 276 260 182 178 179 179 176 176 181 185 185 186 188 189 191 189 190 193 192 193 196 198 203 206 207 209 208 211 215 218 216 220 224 235 236 238 243